AAL414 KATL-KMEM

Flight info

Callsign AAL414
Flight time 0h 59m
Altitude 32000
Route NASSA2 CHOOK WASER VANZE3
Aircraft B738/M-VGDW/C

Departure

Time 2026-05-07 20:41
Airport Hartsfield Jackson Atlanta International Airport (KATL)

Arrival

Time 2026-05-07 21:40
Airport Memphis International Airport (KMEM)
Time Latitude Longitude Altitude Speed Heading
2026-05-07 20:16 33.64180 -84.42992 1008 ft 0 kts 92°
2026-05-07 20:33 33.64180 -84.42997 1008 ft 2 kts 92°
2026-05-07 20:33 33.64181 -84.43015 1008 ft 2 kts 92°
2026-05-07 20:33 33.64182 -84.43027 1008 ft 0 kts 92°
2026-05-07 20:34 33.64180 -84.43044 1008 ft 2 kts 63°
2026-05-07 20:34 33.64175 -84.43055 1008 ft 2 kts 46°
2026-05-07 20:34 33.64162 -84.43065 1008 ft 2 kts 17°
2026-05-07 20:34 33.64151 -84.43066 1008 ft 1 kts 357°
2026-05-07 20:35 33.64148 -84.43066 1008 ft 0 kts
2026-05-07 20:36 33.64159 -84.43066 1008 ft 3 kts
2026-05-07 20:36 33.64179 -84.43066 1008 ft 2 kts
2026-05-07 20:36 33.64231 -84.43067 1008 ft 16 kts 359°
2026-05-07 20:37 33.64399 -84.43071 1005 ft 29 kts 13°
2026-05-07 20:37 33.64463 -84.42893 1003 ft 23 kts 89°
2026-05-07 20:37 33.64467 -84.42760 1001 ft 23 kts 87°
2026-05-07 20:37 33.64471 -84.42468 991 ft 30 kts 91°
2026-05-07 20:38 33.64493 -84.42215 981 ft 29 kts 60°
2026-05-07 20:38 33.64540 -84.42069 975 ft 26 kts 88°
2026-05-07 20:38 33.64545 -84.41751 970 ft 31 kts 90°
2026-05-07 20:38 33.64543 -84.41477 972 ft 34 kts 90°
2026-05-07 20:39 33.64542 -84.41189 975 ft 35 kts 89°
2026-05-07 20:39 33.64544 -84.40901 976 ft 33 kts 89°
2026-05-07 20:39 33.64568 -84.40753 977 ft 23 kts 82°
2026-05-07 20:39 33.64620 -84.40568 975 ft 18 kts
2026-05-07 20:40 33.64679 -84.40726 980 ft 35 kts 269°
2026-05-07 20:40 33.64678 -84.41067 983 ft 85 kts 271°
2026-05-07 20:40 33.64679 -84.42461 1004 ft 159 kts 271°
2026-05-07 20:40 33.64678 -84.43410 1092 ft 186 kts 273°
2026-05-07 20:41 33.64722 -84.45132 1404 ft 221 kts 272°
2026-05-07 20:41 33.64920 -84.47697 1827 ft 247 kts 282°
2026-05-07 20:41 33.65334 -84.49706 1831 ft 247 kts 285°
2026-05-07 20:41 33.65774 -84.51700 1824 ft 246 kts 284°
2026-05-07 20:42 33.66179 -84.53712 1835 ft 248 kts 284°
2026-05-07 20:42 33.66561 -84.55705 1838 ft 247 kts 283°
2026-05-07 20:42 33.66812 -84.57052 1839 ft 247 kts 283°
2026-05-07 20:42 33.67302 -84.59785 2779 ft 253 kts 282°
2026-05-07 20:43 33.67528 -84.61142 3479 ft 248 kts 283°
2026-05-07 20:43 33.67855 -84.63135 4389 ft 246 kts 282°
2026-05-07 20:43 33.68294 -84.65801 5569 ft 244 kts 282°
2026-05-07 20:43 33.68617 -84.67788 6382 ft 245 kts 281°
2026-05-07 20:44 33.68832 -84.69125 6849 ft 248 kts 281°
2026-05-07 20:44 33.69157 -84.71117 7658 ft 247 kts 281°
2026-05-07 20:44 33.69613 -84.73809 8650 ft 250 kts 281°
2026-05-07 20:44 33.69850 -84.75160 9129 ft 251 kts 281°
2026-05-07 20:45 33.70095 -84.77937 10109 ft 252 kts 271°
2026-05-07 20:45 33.70070 -84.79341 10511 ft 256 kts 269°
2026-05-07 20:45 33.69998 -84.81531 10770 ft 273 kts 270°
2026-05-07 20:45 33.69963 -84.83871 11126 ft 286 kts 270°
2026-05-07 20:46 33.69975 -84.87076 11858 ft 291 kts 272°
2026-05-07 20:46 33.69991 -84.89506 12448 ft 294 kts 272°
2026-05-07 20:46 33.69993 -84.91949 13098 ft 295 kts 271°
2026-05-07 20:46 33.69988 -84.93573 13647 ft 291 kts 271°
2026-05-07 20:47 33.69980 -84.96799 14449 ft 293 kts 270°
2026-05-07 20:47 33.69977 -84.99221 15032 ft 294 kts 270°
2026-05-07 20:47 33.69978 -85.01653 15678 ft 293 kts 270°
2026-05-07 20:47 33.69981 -85.04108 16217 ft 294 kts 269°
2026-05-07 20:48 33.69972 -85.06550 16901 ft 291 kts 269°
2026-05-07 20:48 33.69955 -85.08978 17370 ft 294 kts 268°
2026-05-07 20:48 33.69936 -85.11453 17826 ft 297 kts 269°
2026-05-07 20:48 33.69938 -85.13940 18127 ft 304 kts 269°
2026-05-07 20:49 33.69942 -85.16496 18433 ft 310 kts 269°
2026-05-07 20:49 33.69944 -85.18208 18668 ft 312 kts 269°
2026-05-07 20:49 33.69939 -85.20817 19182 ft 311 kts 268°
2026-05-07 20:49 33.69912 -85.23418 19553 ft 314 kts 268°
2026-05-07 20:50 33.69842 -85.26923 20124 ft 316 kts 268°
2026-05-07 20:50 33.69800 -85.28677 20396 ft 317 kts 268°
2026-05-07 20:50 33.69721 -85.32217 20838 ft 321 kts 268°
2026-05-07 20:50 33.69671 -85.34876 21186 ft 323 kts 268°
2026-05-07 20:51 33.69617 -85.37598 21555 ft 325 kts 268°
2026-05-07 20:51 33.69582 -85.40294 22052 ft 322 kts 269°
2026-05-07 20:51 33.69548 -85.42966 22312 ft 326 kts 269°
2026-05-07 20:51 33.69513 -85.45682 22691 ft 326 kts 268°
2026-05-07 20:52 33.69484 -85.48442 22986 ft 329 kts 268°
2026-05-07 20:52 33.69448 -85.51153 23319 ft 330 kts 268°
2026-05-07 20:52 33.69406 -85.53919 23567 ft 333 kts 269°
2026-05-07 20:52 33.69364 -85.56692 23896 ft 334 kts 269°
2026-05-07 20:53 33.69323 -85.59502 24218 ft 335 kts 268°
2026-05-07 20:53 33.69294 -85.61363 24441 ft 336 kts 269°
2026-05-07 20:53 33.69247 -85.65078 24786 ft 339 kts 268°
2026-05-07 20:53 33.69203 -85.67935 25051 ft 341 kts 268°
2026-05-07 20:54 33.69152 -85.70777 25367 ft 343 kts 268°
2026-05-07 20:54 33.69114 -85.73619 25812 ft 340 kts 269°
2026-05-07 20:54 33.69091 -85.75504 26000 ft 342 kts 268°
2026-05-07 20:54 33.69054 -85.78366 26258 ft 344 kts 269°
2026-05-07 20:55 33.69008 -85.82179 26592 ft 347 kts 269°
2026-05-07 20:55 33.68972 -85.85101 26895 ft 347 kts 268°
2026-05-07 20:55 33.68918 -85.87973 27094 ft 350 kts 268°
2026-05-07 20:55 33.68879 -85.89910 27349 ft 349 kts 268°
2026-05-07 20:56 33.68822 -85.93835 27630 ft 353 kts 269°
2026-05-07 20:56 33.68798 -85.96755 27872 ft 354 kts 269°
2026-05-07 20:56 33.68793 -85.99696 28173 ft 354 kts 269°
2026-05-07 20:56 33.68831 -86.02681 28421 ft 356 kts 271°
2026-05-07 20:57 33.69041 -86.05630 28624 ft 358 kts 275°
2026-05-07 20:57 33.69294 -86.07594 28818 ft 359 kts 277°
2026-05-07 20:57 33.69806 -86.10527 28965 ft 363 kts 279°
2026-05-07 20:57 33.70600 -86.14477 29165 ft 366 kts 280°
2026-05-07 20:58 33.71190 -86.17462 29445 ft 365 kts 280°
2026-05-07 20:58 33.71749 -86.20407 29889 ft 361 kts 279°
2026-05-07 20:58 33.72283 -86.23305 30333 ft 356 kts 278°
2026-05-07 20:58 33.72805 -86.26200 30749 ft 351 kts 278°
2026-05-07 20:59 33.73331 -86.29039 31222 ft 345 kts 279°
2026-05-07 20:59 33.73854 -86.31818 31668 ft 340 kts 278°
2026-05-07 20:59 33.74365 -86.34558 31971 ft 336 kts 279°
2026-05-07 21:00 33.75375 -86.40050 31994 ft 338 kts 279°
2026-05-07 21:00 33.76371 -86.45600 31994 ft 340 kts 278°
2026-05-07 21:01 33.77345 -86.51148 31998 ft 341 kts 278°
2026-05-07 21:01 33.78338 -86.56716 31998 ft 343 kts 279°
2026-05-07 21:02 33.79309 -86.62337 32003 ft 344 kts 278°
2026-05-07 21:02 33.80298 -86.67956 32004 ft 346 kts 277°
2026-05-07 21:03 33.81282 -86.73653 32006 ft 349 kts 277°
2026-05-07 21:03 33.82304 -86.79350 32009 ft 350 kts 277°
2026-05-07 21:04 33.83304 -86.85149 32016 ft 353 kts 278°
2026-05-07 21:04 33.84139 -86.89970 32010 ft 354 kts 278°
2026-05-07 21:05 33.85165 -86.95774 32010 ft 356 kts 278°
2026-05-07 21:05 33.86184 -87.01600 32016 ft 358 kts 278°
2026-05-07 21:06 33.87338 -87.08477 32021 ft 360 kts 277°
2026-05-07 21:06 33.88173 -87.13377 32019 ft 361 kts 278°
2026-05-07 21:07 33.89388 -87.20324 32016 ft 362 kts 278°
2026-05-07 21:07 33.90361 -87.26236 32015 ft 362 kts 277°
2026-05-07 21:08 33.91192 -87.31190 32021 ft 363 kts 278°
2026-05-07 21:08 33.92402 -87.38143 32021 ft 364 kts 277°
2026-05-07 21:09 33.93137 -87.43138 32018 ft 364 kts 278°
2026-05-07 21:09 33.94872 -87.48949 32020 ft 377 kts 290°
2026-05-07 21:10 33.97604 -87.54388 32014 ft 380 kts 294°
2026-05-07 21:10 34.00858 -87.60729 32014 ft 379 kts 292°
2026-05-07 21:11 34.03090 -87.65270 32015 ft 378 kts 292°
2026-05-07 21:11 34.07503 -87.74445 32020 ft 378 kts 291°
2026-05-07 21:12 34.09648 -87.79066 32024 ft 379 kts 291°
2026-05-07 21:12 34.12706 -87.85477 32023 ft 377 kts 291°
2026-05-07 21:13 34.15284 -87.90913 32025 ft 374 kts 291°
2026-05-07 21:13 34.17894 -87.96383 32029 ft 376 kts 291°
2026-05-07 21:14 34.20466 -88.01848 32028 ft 376 kts 291°
2026-05-07 21:14 34.22990 -88.07356 32025 ft 376 kts 290°
2026-05-07 21:15 34.25611 -88.12849 32028 ft 376 kts 292°
2026-05-07 21:15 34.28273 -88.18308 31649 ft 380 kts 292°
2026-05-07 21:16 34.29623 -88.21049 31333 ft 376 kts 292°
2026-05-07 21:16 34.30945 -88.23708 31053 ft 364 kts 292°
2026-05-07 21:16 34.32229 -88.26286 30772 ft 353 kts 292°
2026-05-07 21:16 34.33477 -88.28774 30503 ft 346 kts 292°
2026-05-07 21:17 34.34724 -88.31274 30248 ft 348 kts 291°
2026-05-07 21:17 34.35553 -88.32963 30081 ft 352 kts 291°
2026-05-07 21:17 34.37248 -88.36390 29741 ft 355 kts 292°
2026-05-07 21:17 34.38518 -88.38948 29478 ft 356 kts 292°
2026-05-07 21:18 34.39807 -88.41541 29219 ft 355 kts 292°
2026-05-07 21:18 34.40652 -88.43238 29051 ft 354 kts 292°
2026-05-07 21:18 34.41895 -88.45775 28811 ft 353 kts 292°
2026-05-07 21:18 34.43561 -88.49176 28327 ft 352 kts 292°
2026-05-07 21:19 34.44820 -88.51701 27765 ft 348 kts 292°
2026-05-07 21:19 34.46083 -88.54176 27284 ft 343 kts 294°
2026-05-07 21:19 34.46929 -88.55785 26943 ft 340 kts 294°
2026-05-07 21:19 34.48183 -88.58179 26436 ft 335 kts 294°
2026-05-07 21:20 34.49807 -88.61343 25771 ft 329 kts 294°
2026-05-07 21:20 34.50988 -88.63710 25269 ft 337 kts 294°
2026-05-07 21:20 34.52219 -88.66222 24744 ft 353 kts 293°
2026-05-07 21:20 34.53053 -88.67936 24373 ft 357 kts 294°
2026-05-07 21:21 34.54717 -88.71343 23612 ft 354 kts 294°
2026-05-07 21:21 34.55954 -88.73889 23056 ft 350 kts 294°
2026-05-07 21:21 34.57187 -88.76424 22510 ft 345 kts 294°
2026-05-07 21:21 34.58389 -88.78883 21994 ft 341 kts 295°
2026-05-07 21:22 34.59604 -88.81364 21430 ft 338 kts 295°
2026-05-07 21:22 34.60399 -88.82983 21073 ft 335 kts 295°
2026-05-07 21:22 34.61571 -88.85384 20545 ft 331 kts 294°
2026-05-07 21:22 34.62714 -88.87772 20030 ft 326 kts 293°
2026-05-07 21:23 34.63905 -88.91065 19350 ft 317 kts 284°
2026-05-07 21:23 34.64512 -88.93623 18848 ft 313 kts 282°
2026-05-07 21:23 34.64861 -88.95325 18517 ft 310 kts 281°
2026-05-07 21:23 34.65375 -88.97849 18032 ft 307 kts 281°
2026-05-07 21:24 34.66072 -89.01091 17696 ft 293 kts 282°
2026-05-07 21:24 34.66431 -89.02695 17385 ft 293 kts 283°
2026-05-07 21:24 34.67180 -89.05939 16640 ft 311 kts 283°
2026-05-07 21:24 34.67748 -89.08491 16182 ft 311 kts 283°
2026-05-07 21:25 34.68101 -89.10161 15944 ft 306 kts 282°
2026-05-07 21:25 34.68587 -89.12647 15541 ft 299 kts 281°
2026-05-07 21:25 34.69172 -89.15906 14933 ft 294 kts 281°
2026-05-07 21:25 34.69603 -89.18287 14537 ft 289 kts 281°
2026-05-07 21:26 34.70062 -89.20651 14065 ft 287 kts 283°
2026-05-07 21:26 34.70530 -89.22957 13563 ft 282 kts 282°
2026-05-07 21:26 34.70987 -89.25243 13105 ft 271 kts 283°
2026-05-07 21:26 34.71412 -89.27422 12790 ft 259 kts 283°
2026-05-07 21:27 34.71798 -89.29491 12533 ft 246 kts 282°
2026-05-07 21:27 34.72155 -89.31473 12216 ft 236 kts 281°
2026-05-07 21:27 34.72483 -89.33375 11880 ft 228 kts 281°
2026-05-07 21:27 34.72797 -89.35252 11420 ft 226 kts 281°
2026-05-07 21:28 34.73005 -89.36489 11137 ft 224 kts 281°
2026-05-07 21:28 34.73433 -89.38968 10409 ft 227 kts 282°
2026-05-07 21:28 34.73759 -89.40829 10250 ft 221 kts 282°
2026-05-07 21:28 34.74080 -89.42688 10185 ft 230 kts 282°
2026-05-07 21:29 34.74405 -89.44591 9993 ft 230 kts 281°
2026-05-07 21:29 34.74618 -89.45845 9971 ft 224 kts 281°
2026-05-07 21:29 34.74826 -89.48356 9972 ft 229 kts 271°
2026-05-07 21:29 34.74756 -89.50301 9944 ft 230 kts 269°
2026-05-07 21:30 34.74652 -89.52250 9551 ft 232 kts 269°
2026-05-07 21:30 34.74552 -89.54224 8968 ft 238 kts 269°
2026-05-07 21:30 34.74458 -89.56236 8401 ft 239 kts 269°
2026-05-07 21:30 34.74367 -89.58227 7983 ft 236 kts 269°
2026-05-07 21:31 34.74278 -89.60216 7492 ft 235 kts 269°
2026-05-07 21:31 34.74157 -89.62179 7026 ft 236 kts 266°
2026-05-07 21:31 34.74026 -89.63493 6863 ft 233 kts 265°
2026-05-07 21:31 34.73728 -89.66128 6206 ft 241 kts 264°
2026-05-07 21:32 34.73511 -89.68130 5833 ft 241 kts 264°
2026-05-07 21:32 34.73300 -89.70158 5488 ft 241 kts 265°
2026-05-07 21:32 34.73094 -89.72173 5131 ft 241 kts 265°
2026-05-07 21:32 34.72886 -89.74173 4756 ft 242 kts 264°
2026-05-07 21:33 34.72683 -89.76206 4416 ft 241 kts 268°
2026-05-07 21:33 34.72671 -89.77565 4190 ft 240 kts 276°
2026-05-07 21:33 34.73024 -89.80199 3734 ft 239 kts 285°
2026-05-07 21:33 34.73456 -89.82159 3388 ft 238 kts 288°
2026-05-07 21:34 34.73958 -89.84055 3050 ft 237 kts 296°
2026-05-07 21:34 34.74746 -89.85796 2982 ft 231 kts 304°
2026-05-07 21:34 34.75337 -89.86884 2976 ft 234 kts 306°
2026-05-07 21:34 34.76550 -89.89088 2975 ft 236 kts 305°
2026-05-07 21:35 34.77462 -89.90744 2978 ft 236 kts 305°
2026-05-07 21:35 34.78371 -89.92403 2980 ft 235 kts 305°
2026-05-07 21:35 34.79275 -89.94054 2976 ft 237 kts 308°
2026-05-07 21:35 34.79969 -89.95116 2974 ft 237 kts 312°
2026-05-07 21:36 34.81558 -89.96918 2979 ft 236 kts 332°
2026-05-07 21:36 34.83110 -89.97562 2982 ft 234 kts 355°
2026-05-07 21:36 34.84717 -89.97455 2988 ft 235 kts
2026-05-07 21:36 34.86357 -89.97265 2983 ft 234 kts
2026-05-07 21:37 34.87989 -89.97251 2979 ft 235 kts 358°
2026-05-07 21:37 34.89623 -89.97282 2977 ft 232 kts 359°
2026-05-07 21:37 34.90713 -89.97302 2982 ft 234 kts 358°
2026-05-07 21:37 34.92873 -89.97351 2977 ft 226 kts 359°
2026-05-07 21:38 34.94388 -89.97381 2890 ft 214 kts 359°
2026-05-07 21:38 34.95890 -89.97417 2443 ft 218 kts 358°
2026-05-07 21:38 34.97412 -89.97444 2000 ft 220 kts 359°
2026-05-07 21:38 34.98924 -89.97478 1659 ft 212 kts 358°
2026-05-07 21:39 35.00337 -89.97508 1341 ft 192 kts 358°
2026-05-07 21:39 35.01602 -89.97530 986 ft 175 kts 358°
2026-05-07 21:39 35.02826 -89.97563 402 ft 170 kts 358°
2026-05-07 21:39 35.03910 -89.97598 308 ft 128 kts 360°
2026-05-07 21:40 35.04591 -89.97602 292 ft 68 kts 359°
2026-05-07 21:40 35.04859 -89.97650 287 ft 16 kts 294°
2026-05-07 21:40 35.04864 -89.97694 288 ft 0 kts 258°
2026-05-07 21:41 35.04813 -89.97752 289 ft 25 kts 191°
2026-05-07 21:41 35.04600 -89.97749 293 ft 33 kts 180°
2026-05-07 21:41 35.04388 -89.97744 297 ft 27 kts 179°
2026-05-07 21:41 35.04218 -89.97751 301 ft 20 kts 214°
2026-05-07 21:42 35.04254 -89.97841 300 ft 14 kts
2026-05-07 21:42 35.04308 -89.97850 299 ft 3 kts 321°
2026-05-07 21:42 35.04326 -89.97877 299 ft 3 kts 309°
2026-05-07 21:42 35.04337 -89.97894 298 ft 3 kts 308°
2026-05-07 21:43 35.04342 -89.97900 298 ft 0 kts 308°